When you browse on this site, cookies collect data to enhance your experience and personalize the content and advertising you see.
Visit our Privacy Policy to learn more. By continuing to use the site, you agree to this use of cookies and data.
  • In Italy
  • List of Countries
  • For 7 days
  • Water Temperature
  • Satellite Maps
  • Weather Map
  • Weather Widgets
  • user-avatar
    Login

    Hourly Weather Santa Fe

    Today, 17 December, Monday

    Time Temperature Precipitation Wind Pressure Humidity
    00:00 +27°C° 0.7 mm 2 mps 753 mmHg 90%
    01:00 +26°C° 0.7 mm 2 mps 753 mmHg 91%
    02:00 +26°C° 0 mm 2 mps 753 mmHg 92%
    03:00 +26°C° 0.4 mm 2 mps 753 mmHg 92%
    04:00 +26°C° 0.4 mm 2 mps 753 mmHg 92%
    05:00 +26°C° 0.4 mm 2 mps 753 mmHg 92%
    06:00 +27°C° 1 mm 2 mps 754 mmHg 91%
    07:00 +28°C° 1 mm 2 mps 754 mmHg 89%
    08:00 +29°C° 1 mm 1 mps 755 mmHg 87%
    09:00 +29°C° 4.3 mm 2 mps 755 mmHg 85%
    10:00 +30°C° 4.3 mm 2 mps 755 mmHg 83%
    11:00 +30°C° 4.3 mm 2 mps 755 mmHg 81%
    12:00 +30°C° 2.5 mm 2 mps 755 mmHg 82%
    13:00 +30°C° 2.5 mm 2 mps 755 mmHg 82%
    14:00 +30°C° 2.5 mm 2 mps 755 mmHg 82%
    15:00 +29°C° 0.7 mm 2 mps 754 mmHg 82%
    16:00 +29°C° 0.7 mm 3 mps 754 mmHg 83%
    17:00 +29°C° 0.7 mm 3 mps 754 mmHg 83%
    18:00 +28°C° 2.7 mm 3 mps 754 mmHg 87%
    19:00 +27°C° 2.7 mm 4 mps 755 mmHg 90%
    20:00 +26°C° 2.7 mm 4 mps 755 mmHg 94%
    21:00 +25°C° 1.8 mm 4 mps 756 mmHg 94%
    22:00 +25°C° 1.8 mm 4 mps 757 mmHg 95%
    23:00 +23°C° 1.8 mm 4 mps 757 mmHg 95%

    Tomorrow, 18 December, Tuesday

    Time Temperature Precipitation Wind Pressure Humidity
    00:00 +23°C° 0.7 mm 4 mps 757 mmHg 95%
    01:00 +22°C° 0.7 mm 5 mps 757 mmHg 95%
    02:00 +21°C° 0.7 mm 5 mps 757 mmHg 95%
    03:00 +21°C° 0.4 mm 5 mps 758 mmHg 95%
    04:00 +21°C° 0.4 mm 5 mps 758 mmHg 95%
    05:00 +20°C° 0.4 mm 4 mps 758 mmHg 95%
    06:00 +20°C° 0.1 mm 4 mps 758 mmHg 94%
    07:00 +21°C° 0.1 mm 4 mps 759 mmHg 94%
    08:00 +21°C° 0.1 mm 5 mps 760 mmHg 94%
    09:00 +21°C° 0 mm 4 mps 760 mmHg 92%
    10:00 +22°C° 0 mm 4 mps 760 mmHg 90%
    11:00 +22°C° 0 mm 4 mps 760 mmHg 88%
    12:00 +23°C° 0 mm 4 mps 760 mmHg 85%
    13:00 +25°C° 0 mm 4 mps 760 mmHg 83%
    14:00 +25°C° 0 mm 4 mps 760 mmHg 80%
    15:00 +25°C° 0 mm 4 mps 759 mmHg 80%
    16:00 +25°C° 0 mm 4 mps 759 mmHg 80%
    17:00 +25°C° 0 mm 4 mps 759 mmHg 81%
    18:00 +25°C° 0 mm 4 mps 759 mmHg 83%
    19:00 +24°C° 0 mm 3 mps 759 mmHg 85%
    20:00 +22°C° 0 mm 3 mps 759 mmHg 88%
    21:00 +22°C° 0 mm 3 mps 759 mmHg 89%
    22:00 +21°C° 0 mm 2 mps 759 mmHg 90%
    23:00 +21°C° 0 mm 2 mps 759 mmHg 91%

    Day after tomorrow, 19 December, Wednesday

    Time Temperature Precipitation Wind Pressure Humidity
    00:00 +21°C° 0 mm 2 mps 758 mmHg 92%
    01:00 +21°C° 0 mm 2 mps 758 mmHg 93%
    02:00 +21°C° 0 mm 2 mps 757 mmHg 94%
    03:00 +20°C° 0 mm 2 mps 757 mmHg 95%
    04:00 +20°C° 0 mm 2 mps 757 mmHg 96%
    05:00 +20°C° 0 mm 2 mps 757 mmHg 97%
    06:00 +21°C° 0 mm 2 mps 757 mmHg 94%
    07:00 +23°C° 0 mm 2 mps 757 mmHg 90%
    08:00 +24°C° 0 mm 2 mps 757 mmHg 87%
    09:00 +24°C° 0 mm 2 mps 757 mmHg 84%
    10:00 +25°C° 0 mm 1 mps 757 mmHg 81%
    11:00 +26°C° 0 mm 1 mps 757 mmHg 78%
    12:00 +27°C° 0 mm 1 mps 756 mmHg 76%
    13:00 +27°C° 0 mm 1 mps 756 mmHg 75%
    14:00 +28°C° 0 mm 1 mps 755 mmHg 73%
    15:00 +28°C° 0 mm 1 mps 754 mmHg 72%
    16:00 +28°C° 0 mm 1 mps 754 mmHg 71%
    17:00 +29°C° 0 mm 1 mps 753 mmHg 70%
    18:00 +27°C° 0 mm 1 mps 753 mmHg 75%
    19:00 +26°C° 0 mm 1 mps 753 mmHg 80%
    20:00 +25°C° 0 mm 1 mps 754 mmHg 84%
    21:00 +24°C° 0 mm 1 mps 754 mmHg 87%
    22:00 +24°C° 0 mm 1 mps 754 mmHg 90%
    23:00 +23°C° 0 mm 1 mps 754 mmHg 93%

    20 December, Thursday

    Time Temperature Precipitation Wind Pressure Humidity
    00:00 +23°C° 0 mm 1 mps 754 mmHg 94%
    01:00 +23°C° 0 mm 1 mps 753 mmHg 95%
    02:00 +22°C° 0 mm 1 mps 752 mmHg 96%
    03:00 +22°C° 0 mm 1 mps 752 mmHg 96%
    04:00 +22°C° 0 mm 1 mps 752 mmHg 97%
    05:00 +20°C° 0 mm 0 mps 753 mmHg 97%
    06:00 +24°C° 0 mm 1 mps 753 mmHg 91%
    07:00 +25°C° 0 mm 1 mps 754 mmHg 85%
    08:00 +27°C° 0 mm 2 mps 754 mmHg 79%
    09:00 +28°C° 0.1 mm 2 mps 754 mmHg 74%
    10:00 +29°C° 0.1 mm 2 mps 754 mmHg 69%
    11:00 +31°C° 0.1 mm 1 mps 753 mmHg 64%
    12:00 +31°C° 0.5 mm 1 mps 753 mmHg 62%
    13:00 +32°C° 0.5 mm 1 mps 752 mmHg 60%
    14:00 +33°C° 0.5 mm 1 mps 752 mmHg 58%
    15:00 +32°C° 1.3 mm 1 mps 751 mmHg 60%
    16:00 +32°C° 1.3 mm 1 mps 751 mmHg 62%
    17:00 +31°C° 1.3 mm 1 mps 751 mmHg 65%
    18:00 +29°C° 2.2 mm 1 mps 752 mmHg 72%
    19:00 +27°C° 2.2 mm 2 mps 752 mmHg 80%
    20:00 +25°C° 2.2 mm 2 mps 752 mmHg 87%
    21:00 +25°C° 0 mm 1 mps 752 mmHg 87%
    22:00 +25°C° 0 mm 1 mps 752 mmHg 87%
    23:00 +24°C° 0 mm 1 mps 753 mmHg 87%

    21 December, Friday

    Time Temperature Precipitation Wind Pressure Humidity
    00:00 +24°C° 0.1 mm 1 mps 752 mmHg 89%
    01:00 +23°C° 0.1 mm 2 mps 752 mmHg 91%
    02:00 +22°C° 0.1 mm 3 mps 752 mmHg 93%
    03:00 +21°C° 0 mm 3 mps 752 mmHg 94%
    04:00 +21°C° 0 mm 2 mps 752 mmHg 94%
    05:00 +21°C° 0 mm 2 mps 753 mmHg 95%
    06:00 +23°C° 0 mm 2 mps 753 mmHg 88%
    07:00 +25°C° 0 mm 2 mps 753 mmHg 82%
    08:00 +26°C° 0 mm 3 mps 754 mmHg 76%
    09:00 +28°C° 0 mm 3 mps 754 mmHg 68%
    10:00 +29°C° 0 mm 3 mps 754 mmHg 60%
    11:00 +31°C° 0 mm 3 mps 754 mmHg 51%
    12:00 +33°C° 0 mm 3 mps 753 mmHg 48%
    13:00 +33°C° 0 mm 4 mps 753 mmHg 44%
    14:00 +34°C° 0 mm 4 mps 752 mmHg 41%
    15:00 +34°C° 0 mm 3 mps 752 mmHg 43%
    16:00 +33°C° 0 mm 3 mps 752 mmHg 45%
    17:00 +32°C° 0 mm 2 mps 752 mmHg 47%
    18:00 +30°C° 0 mm 2 mps 752 mmHg 50%
    19:00 +28°C° 0 mm 1 mps 752 mmHg 53%
    20:00 +26°C° 0 mm 1 mps 753 mmHg 55%
    21:00 +25°C° 0 mm 1 mps 753 mmHg 56%
    22:00 +22°C° 0 mm 0 mps 753 mmHg 57%
    23:00 +22°C° 0 mm 0 mps 754 mmHg 58%

    22 December, Saturday

    Time Temperature Precipitation Wind Pressure Humidity
    00:00 +24°C° 0 mm 1 mps 754 mmHg 58%
    01:00 +23°C° 0 mm 1 mps 754 mmHg 58%
    02:00 +23°C° 0 mm 1 mps 754 mmHg 59%
    03:00 +23°C° 0 mm 1 mps 754 mmHg 59%
    04:00 +22°C° 0 mm 1 mps 754 mmHg 60%
    05:00 +22°C° 0 mm 1 mps 754 mmHg 61%
    06:00 +24°C° 0 mm 1 mps 755 mmHg 57%
    07:00 +26°C° 0 mm 1 mps 755 mmHg 54%
    08:00 +28°C° 0 mm 1 mps 755 mmHg 51%
    09:00 +30°C° 0 mm 1 mps 755 mmHg 45%
    10:00 +32°C° 0 mm 1 mps 755 mmHg 40%
    11:00 +34°C° 0 mm 1 mps 755 mmHg 35%
    12:00 +35°C° 0 mm 1 mps 755 mmHg 33%
    13:00 +36°C° 0 mm 2 mps 754 mmHg 31%
    14:00 +37°C° 0 mm 2 mps 754 mmHg 29%
    15:00 +36°C° 0 mm 2 mps 754 mmHg 33%
    16:00 +36°C° 0 mm 2 mps 754 mmHg 37%
    17:00 +36°C° 0 mm 3 mps 754 mmHg 41%
    18:00 +33°C° 0 mm 3 mps 754 mmHg 46%
    19:00 +30°C° 0 mm 3 mps 754 mmHg 50%
    20:00 +27°C° 0 mm 3 mps 755 mmHg 55%
    21:00 +27°C° 0 mm 3 mps 755 mmHg 57%
    22:00 +26°C° 0 mm 3 mps 755 mmHg 58%
    23:00 +25°C° 0 mm 3 mps 756 mmHg 60%
    Show more